This demonstration page uses our WeatherBlox Daily Observations layout. Learn more.

Left ArrowRight Arrow

44.8408, -93.29828

Hourly Observations for September 10, 2022

Temp ( °F °C ) Dew Point ( °F °C ) Humidity (%) Winds ( mph kmh ) Pressure ( in mb ) Visibility ( mi km ) Precip ( " mm )
12:53 am 00:53 Mostly Cloudy 60 15.6 59 15 96 96 Calm 30.03 1017 10 16 0.01 0.13
1:53 am 01:53 Mostly Cloudy 60 15.6 59 15 96 96 NE 3 6 30.04 1017 10 16 0.00 0.00
2:53 am 02:53 Mostly Cloudy 60 15.6 58 14.4 93 93 Calm 30.05 1018 7 11 0.00 0.00
3:53 am 03:53 Mostly Cloudy with Mist and Fog 60 15.6 58 14.4 93 93 Calm 30.03 1017 6 10 0.00 0.00
4:11 am 04:11 Mostly Cloudy 61 16.1 57 13.9 87 87 Calm 30.04 1017 7 11 0.00 0.00
4:53 am 04:53 Partly Cloudy 60 15.6 59 15 96 96 SW 3 6 30.07 1018 7 11 0.00 0.00
5:53 am 05:53 Mostly Cloudy 60 15.6 59 15 96 96 Calm 30.08 1019 7 11 0.00 0.00
6:02 am 06:02 Mostly Cloudy 59 15 58 14.4 96 96 SSW 3 6 30.07 1018 7 11 0.00 0.00
6:53 am 06:53 Cloudy with Patchy Fog 59 15 58 14.4 96 96 Calm 30.09 1019 7 11 0.00 0.00
7:15 am 07:15 Cloudy with Patchy Fog 59 15 58 14.4 96 96 WSW 5 7 30.08 1019 6 10 0.00 0.00
7:53 am 07:53 Cloudy 59 15 57 13.9 93 93 WNW 3 6 30.10 1019 8 13 0.00 0.00
8:53 am 08:53 Mostly Cloudy 60 15.6 57 13.9 90 90 Calm 30.11 1020 10 16 0.00 0.00
9:37 am 09:37 Mostly Cloudy 61 16.1 56 13.3 83 83 Calm 30.10 1019 9 14 0.00 0.00
9:53 am 09:53 Mostly Cloudy 62 16.7 57 13.9 84 84 NNW 3 6 30.11 1020 8 13 0.00 0.00
10:01 am 10:01 Mostly Cloudy 62 16.7 57 13.9 84 84 N 3 6 30.11 1020 8 13 0.00 0.00
10:25 am 10:25 Mostly Cloudy 62 16.7 57 13.9 84 84 NNW 3 6 30.12 1020 10 16 0.00 0.00
10:53 am 10:53 Mostly Cloudy 64 17.8 57 13.9 78 78 NNW 5 7 30.13 1020 10 16 0.00 0.00
11:34 am 11:34 Mostly Cloudy 64 17.8 58 14.4 80 80 NW 5 7 30.12 1020 7 11 0.00 0.00
11:53 am 11:53 Mostly Cloudy 66 18.9 58 14.4 75 75 VRB 5 7 30.14 1021 9 14 0.00 0.00
12:20 pm 12:20 Mostly Cloudy 66 18.9 56 13.3 70 70 SE 3 6 30.12 1020 10 16 0.00 0.00
12:53 pm 12:53 Mostly Cloudy 68 20 54 12.2 61 61 NNE 5 7 30.12 1020 10 16 0.00 0.00
1:53 pm 13:53 Mostly Cloudy 71 21.7 50 10 47 47 VRB 6 9 30.12 1020 10 16 0.00 0.00
2:53 pm 14:53 Mostly Cloudy 73 22.8 49 9.4 42 42 N 14 22 30.11 1020 10 16 0.00 0.00
3:53 pm 15:53 Partly Cloudy 71 21.7 46 7.8 41 41 NNW 12 19 30.11 1020 10 16 0.00 0.00
4:53 pm 16:53 Partly Cloudy 73 22.8 44 6.7 35 35 N 13 20 30.11 1020 10 16 0.00 0.00
5:53 pm 17:53 Partly Cloudy 70 21.1 43 6.1 38 38 NNW 12 19 30.12 1020 10 16 0.00 0.00
6:53 pm 18:53 Mostly Sunny 69 20.6 44 6.7 40 40 NNW 7 11 30.14 1021 10 16 0.00 0.00
7:53 pm 19:53 Clear 66 18.9 45 7.2 47 47 NNW 3 6 30.14 1021 10 16 0.00 0.00
8:53 pm 20:53 Mostly Clear 63 17.2 47 8.3 56 56 WNW 5 7 30.16 1021 10 16 0.00 0.00
9:53 pm 21:53 Mostly Clear 62 16.7 49 9.4 62 62 WNW 3 6 30.16 1022 10 16 0.00 0.00
10:53 pm 22:53 Mostly Clear 60 15.6 50 10 69 69 Calm 30.17 1022 10 16 0.00 0.00
11:53 pm 23:53 Clear 59 15 49 9.4 69 69 Calm 30.18 1022 10 16 0.00 0.00

Powered by AerisWeather